AO-07 1 07530U 74089B 20023.53266275 -.00000043 00000-0 12606-4 0 9993 2 07530 101.7799 354.2127 0011980 286.0134 183.3008 12.53641695067703 UO-11 1 14781U 84021B 20023.49665647 .00000085 00000-0 16483-4 0 9999 2 14781 097.5973 042.6756 0007611 329.9619 030.1158 14.83136859910193 LO-19 1 20442U 90005G 20023.57592013 -.00000031 00000-0 51468-5 0 9999 2 20442 098.6755 330.4732 0010964 220.7578 139.2786 14.32943033567665 HUBBLE 1 20580U 90037B 20023.55215868 .00000368 00000-0 11374-4 0 9998 2 20580 028.4681 204.6271 0002622 324.0093 076.0970 15.09328729433905 MET-2/21 1 22782U 93055A 20023.41657538 .00000032 00000-0 15699-4 0 9998 2 22782 082.5504 349.4825 0021074 286.1403 236.8727 13.83823135332842 AO-27 1 22825U 93061C 20023.49445385 -.00000014 00000-0 12442-4 0 9990 2 22825 98.9189 22.3012 0009470 83.0137 277.2121 14.30076219373229 IO-26 1 22826U 93061D 20023.51502809 -.00000015 00000-0 11988-4 0 9994 2 22826 098.9129 022.2866 0009946 072.4679 287.7589 14.30410889373185 FO-29 1 24278U 96046B 20023.57294054 -.00000034 00000-0 56208-6 0 9996 2 24278 098.5657 152.6421 0350919 032.8537 329.3897 13.53094942157151 NOAA-15 1 25338U 98030A 20023.55488570 .00000027 00000-0 30076-4 0 9999 2 25338 098.7311 049.2421 0009851 332.0058 028.0591 14.25948433128186 GO-32 1 25397U 98043D 20023.54373617 -.00000027 00000-0 73827-5 0 9995 2 25397 098.7138 326.2735 0002276 106.5027 253.6401 14.23678047118799 ISS 1 25544U 98067A 20023.68314815 .00000446 00000-0 16017-4 0 9996 2 25544 51.6457 348.3987 0004676 158.6237 196.2545 15.49581559209451 NO-44 1 26931U 01043C 20023.61052932 -.00000072 00000-0 41300-5 0 9997 2 26931 067.0509 158.7557 0006657 262.9297 097.1047 14.30565142956211 SO-50 1 27607U 02058C 20023.52341651 -.00000038 00000-0 15473-4 0 9997 2 27607 64.5555 100.5394 0065675 212.8519 146.8494 14.75604301919324 CO-55 1 27844U 03031E 20023.52250016 .00000044 00000-0 39669-4 0 9995 2 27844 098.6836 033.4484 0010818 115.6024 244.6272 14.22217204859352 CO-57 1 27848U 03031J 20023.50689931 .00000027 00000-0 32067-4 0 9995 2 27848 098.6906 033.9734 0010608 126.5566 233.6589 14.21806955859205 RS-22 1 27939U 03042A 20023.54436825 -.00000005 00000-0 76622-5 0 9997 2 27939 98.0666 160.5093 0014305 95.2663 265.0164 14.66831320872628 NOAA-18 1 28654U 05018A 20023.45407865 .00000069 00000-0 62432-4 0 9991 2 28654 099.0667 078.3696 0013337 282.6722 077.2958 14.12483484756307 CO-58 1 28895U 05043F 20023.33207482 .00000067 00000-0 21741-4 0 9992 2 28895 097.9861 163.9873 0017213 025.9987 334.2077 14.63731276759237 Falconsat-3 1 30776U 07006E 20023.57880774 .00002164 00000-0 59600-4 0 9996 2 30776 035.4346 132.8253 0003275 292.5536 067.4844 15.37101203714371 CO-65 1 32785U 08021C 20023.51869357 .00000161 00000-0 22984-4 0 9994 2 32785 97.5619 18.0549 0011566 255.9721 104.0210 14.88407221636236 AAUSAT2 1 32788U 08021F 20023.47484119 -.00000016 00000-0 35318-5 0 9997 2 32788 097.4921 034.4709 0011681 178.7376 181.3877 14.94923405637502 DO-64 1 32789U 08021G 20023.57774676 .00000521 00000-0 38357-4 0 9994 2 32789 097.4385 071.3507 0013727 096.3815 263.8976 15.07404010639834 CO-66 1 32791U 08021J 20023.50195061 .00000159 00000-0 21435-4 0 9991 2 32791 97.5340 24.1659 0012202 224.4520 135.5721 14.90957297636715 RS-30 1 32953U 08025A 20023.39962061 .00000037 00000-0 19437-3 0 9997 2 32953 82.5038 8.7427 0019783 15.9487 344.2212 12.43093854529485 PRISM 1 33493U 09002B 20023.53618867 .00000157 00000-0 19226-4 0 9991 2 33493 098.1332 317.9032 0014978 174.7402 185.3979 14.96877886597871 NOAA-19 1 33591U 09005A 20023.51903787 .00000018 00000-0 34913-4 0 9995 2 33591 099.1931 025.0835 0014749 122.9859 237.2731 14.12392933564534 TISAT-1 1 36799U 10035E 20023.43574232 .00000119 00000-0 18057-4 0 9996 2 36799 98.1774 188.2323 0013553 89.4335 270.8435 14.91253545517368 JUGNU 1 37839U 11058B 20023.58089865 .00000304 00000-0 19921-4 0 9994 2 37839 019.9620 087.3854 0018692 219.9144 291.1491 14.12669837428132 SRMSAT 1 37841U 11058D 20023.58002802 .00000278 00000-0 78194-5 0 9991 2 37841 019.9710 148.6977 0011959 080.9687 015.2991 14.10648256427543 AO-71 1 37854U 11061E 20023.50983910 .00000815 00000-0 48919-4 0 9997 2 37854 101.7135 039.4339 0159415 135.7216 225.6879 15.06934331449492 HRBE 1 37855U 11061F 20023.49329353 .00000600 00000-0 37682-4 0 9998 2 37855 101.7268 036.6300 0172086 148.0341 213.1450 15.05949176449233 ALMASAT-1 1 38078U 12006B 20023.58239675 .00088189 68390-5 26365-3 0 9997 2 38078 69.4207 351.9500 0099219 276.0091 197.9669 15.84446080431885 HORYU-2 1 38340U 12025D 20023.57746299 .00000107 00000-0 23542-4 0 9992 2 38340 098.3026 073.4129 0012348 142.3046 217.9030 14.75801205403037 RS-40 1 38735U 12041C 20023.47298330 -.00000004 00000-0 -10277-3 0 9993 2 38735 82.4772 91.6963 0018149 118.4815 241.8090 12.42579877339723 BEESAT-3 1 39135U 13015F 20023.51738770 .00000884 00000-0 52358-4 0 9993 2 39135 064.8665 052.6339 0045450 269.2242 090.3677 15.17873766373063 BEESAT-2 1 39136U 13015G 20023.50618724 .00000616 00000-0 40519-4 0 9998 2 39136 64.8710 57.1652 0030892 279.0816 80.6815 15.17289863373361 ZACUBE-1 1 39417U 13066B 20023.51970718 .00000198 00000-0 31141-4 0 9997 2 39417 97.5615 29.6981 0059795 37.6629 322.8748 14.81210535333432 TRITON-1 1 39427U 13066M 20023.54231457 .00000101 00000-0 24166-4 0 9994 2 39427 097.7057 352.7533 0113521 184.2057 175.8206 14.67932499330256 GOMX-1 1 39430U 13066Q 20023.48977459 .00000086 00000-0 25084-4 0 9992 2 39430 97.7752 330.9676 0149861 284.7511 73.7117 14.59341493328517 LO-74 1 39440U 13066AA 20023.53167282 .00000174 00000-0 30869-4 0 9999 2 39440 097.6172 014.2196 0081621 094.0041 267.0504 14.75946651331057 AO-73 1 39444U 13066AE 20023.53316916 .00000248 00000-0 36725-4 0 9992 2 39444 097.5574 031.8478 0058731 030.6351 329.8271 14.82049256331758 SPROUT 1 39770U 14029E 20023.52911826 .00000436 00000-0 54074-4 0 9990 2 39770 97.8900 130.5427 0009947 87.4222 272.8139 14.87584374307369 DUCHIFAT-1 1 40021U 14033M 20023.36736648 .00000291 00000-0 35426-4 0 9994 2 40021 97.9355 313.7927 0014051 52.6330 307.6165 14.90792638304126 NANOSATCBR1 1 40024U 14033Q 20023.51107633 .00000169 00000-0 23476-4 0 9996 2 40024 097.9227 310.7670 0013446 056.3314 303.9184 14.89979811303508 EO-79 1 40025U 14033R 20023.43819314 .00000151 00000-0 21967-4 0 9998 2 40025 97.9125 307.8069 0013749 62.6286 297.6328 14.89057566303872 DTUSAT-2 1 40030U 14033W 20023.49475078 .00000153 00000-0 22458-4 0 9993 2 40030 097.9022 305.6312 0013146 058.9033 301.3472 14.88642060303297 EO-80 1 40032U 14033Y 20023.50848639 .00000180 00000-0 25368-4 0 9997 2 40032 97.9029 305.6463 0013114 59.5458 300.7052 14.88588051303797 ANTELSAT 1 40034U 14033AA 20023.60965281 .00000173 00000-0 32792-4 0 9994 2 40034 097.7317 246.1223 0059953 109.3755 251.3948 14.74194208300395 VELOX-1 1 40057U 14034E 20023.45586818 .00000173 00000-0 31741-4 0 9991 2 40057 98.2575 156.6258 0009773 249.7620 110.2537 14.77786776300072 DAURIA DX 1 1 40071U 14037C 20023.48098814 .00000062 00000-0 15447-4 0 9999 2 40071 98.4463 193.8878 0007278 241.3717 118.6771 14.81327133299645 UKUBE-1 1 40074U 14037F 20023.47878222 .00000221 00000-0 33589-4 0 9994 2 40074 098.4507 203.1433 0003191 220.2231 139.8752 14.84178700300101 HODOYOSHI-1 1 40299U 14070B 20023.50040595 .00000278 00000-0 14436-4 0 9990 2 40299 97.3352 103.5511 0012433 356.6193 122.5905 15.23764083289582 CHUBUSAT-1 1 40300U 14070C 20023.48323465 .00000413 00000-0 20811-4 0 9995 2 40300 97.3070 96.8918 0020500 10.9388 0.2265 15.22331046289306 QSAT-EOS 1 40301U 14070D 20023.49975251 .00000904 00000-0 37118-4 0 9996 2 40301 97.3088 101.2109 0025151 349.4739 129.1947 15.26506159289666 FIREBIRD FU3 1 40377U 15003B 20023.56318400 .00001460 00000-0 60022-4 0 9999 2 40377 099.1136 053.8235 0126222 081.1652 280.3846 15.19515605275144 FIREBIRD FU4 1 40378U 15003C 20023.21963714 .00001528 00000-0 62520-4 0 9996 2 40378 99.1139 53.4987 0126426 82.1864 279.3696 15.19528382275103 GRIFEX 1 40379U 15003D 20023.17326697 .00001057 00000-0 48296-4 0 9996 2 40379 99.1192 46.1916 0134939 104.3824 257.2425 15.16013077274689 NO-84 1 40654U 15025D 20023.35937847 .00006911 00000-0 90973-4 0 8342 2 40654 54.9860 252.6349 0127532 168.0203 192.3914 15.50805443146335 DEORBITSAIL 1 40719U 15032E 20023.50372795 .00000293 00000-0 48863-4 0 9994 2 40719 097.8873 275.5939 0015729 323.9314 036.0834 14.76894807244552 NUDT-PHONESAT 1 40900U 15049B 20023.48996052 .00001383 00000-0 60754-4 0 9993 2 40900 97.4345 35.7384 0013886 131.6754 22.4638 15.23530794240965 XW-2A 1 40903U 15049E 20023.45028749 .00001331 00000-0 32551-4 0 9999 2 40903 97.3109 72.1660 0015134 75.2783 49.1821 15.42546652243964 XW-2C 1 40906U 15049H 20023.51168662 .00000179 00000-0 12821-4 0 9995 2 40906 97.4733 27.0596 0015384 154.1805 323.5293 15.15900502240144 XW-2D 1 40907U 15049J 20023.53026933 .00000606 00000-0 34832-4 0 9993 2 40907 97.4718 26.7673 0014739 151.1591 345.2398 15.16114576240160 LILACSAT-2 1 40908U 15049K 20023.51764047 .00000047 00000-0 61808-5 0 9990 2 40908 97.4862 25.3086 0016382 160.6025 328.8660 15.13938321239916 XW-2E 1 40909U 15049L 20023.56513602 .00000505 00000-0 27987-4 0 9993 2 40909 97.4629 30.0270 0014520 144.6145 311.2980 15.18149227240392 XW-2F 1 40910U 15049M 20023.53885590 .00000809 00000-0 43409-4 0 9994 2 40910 97.4659 29.1218 0015563 142.9455 336.2082 15.17662971240206 XW-2B 1 40911U 15049N 20023.56564487 .00000180 00000-0 12805-4 0 9995 2 40911 097.4733 027.4864 0014708 152.3953 302.9635 15.16039194240068 DCBB 1 40912U 15049P 20023.50356610 .00000703 00000-0 35750-4 0 9992 2 40912 97.4498 33.0650 0016259 124.9960 26.1137 15.20018632240543 TW-1C 1 40926U 15051B 20023.42593093 .00011089 00000-0 13512-3 0 9999 2 40926 97.1084 74.6216 0004757 275.1832 210.5754 15.60657036244215 TW-1A 1 40928U 15051D 20023.35557164 .00001798 00000-0 44283-4 0 9998 2 40928 97.1261 54.6883 0010866 9.9295 116.8036 15.41841974242850 IO-86 1 40931U 15052B 20022.24229943 .00000646 00000-0 71676-6 0 9990 2 40931 5.9978 305.2532 0014232 354.0615 5.9774 14.76623875233462 LQSat 1 40958U 15057A 20023.41991767 .00000023 00000-0 11150-4 0 9992 2 40958 097.8736 091.4010 0016800 258.1646 101.7678 14.73105303231014 AO-85 1 40967U 15058D 20023.50761286 .00000064 00000-0 26408-4 0 9373 2 40967 64.7734 213.9370 0175021 128.6877 233.0031 14.76057361140039 ATHENOXAT-1 1 41168U 15077C 20023.32918783 .00001662 00000-0 51771-4 0 9998 2 41168 14.9894 53.2904 0011401 254.4741 105.4321 15.14053987227161 ChubuSat-2 1 41338U 16012B 20023.59567407 .00000248 00000-0 12506-4 0 9991 2 41338 031.0019 193.5273 0013551 111.9043 248.3034 15.00234093215817 ChubuSat-3 1 41339U 16012C 20023.53999046 .00000234 00000-0 11370-4 0 9997 2 41339 31.0103 191.6959 0013144 118.5614 241.6358 15.00403235215807 Horyu-4 1 41340U 16012D 20023.57541662 .00000381 00000-0 22137-4 0 9996 2 41340 031.0038 180.7209 0013742 141.5027 218.6591 15.01400588215937 OUFTI-1 1 41458U 16025C 20023.50468381 .00000820 00000-0 45550-4 0 9991 2 41458 098.0986 126.5136 0164289 341.5359 017.9947 15.06393097205500 e-st@r-II 1 41459U 16025D 20023.50952702 -.00000163 00000-0 -34781-5 0 9994 2 41459 98.0975 126.0430 0165816 343.3346 16.2465 15.05987071205477 AAUSAT4 1 41460U 16025E 20023.52918135 .00000915 00000-0 49420-4 0 9998 2 41460 98.0962 127.9078 0155020 333.6143 25.7222 15.08103995205649 LO-87 1 41557U 16033B 20023.52535426 .00000959 00000-0 38170-4 0 9990 2 41557 97.4094 114.7221 0012239 240.9182 119.0832 15.27678578203496 NuSat2 1 41558U 16033C 20023.54724542 .00001053 00000-0 39301-4 0 9995 2 41558 097.4133 116.5204 0011305 239.0213 120.9917 15.29621643203587 Lapan A3 1 41603U 16040E 20023.50858655 -.00000038 00000-0 13357-5 0 9990 2 41603 97.3325 81.4427 0013350 1.4556 105.4553 15.19787550198979 Swayam 1 41607U 16040J 20023.44134934 .00001104 00000-0 48658-4 0 9999 2 41607 97.3389 86.1281 0012731 348.8938 11.2016 15.23831330199180 Pratham 1 41783U 16059A 20023.38844175 .00000046 00000-0 18066-4 0 9996 2 41783 098.0391 082.7922 0034622 057.5415 302.9127 14.63033059177529 AlSat 1N 1 41789U 16059G 20023.39498613 .00000026 00000-0 13869-4 0 9999 2 41789 98.0422 85.2821 0029341 46.5746 313.7892 14.64291268177655 ScatSat 1 41790U 16059H 20023.47146313 -.00000054 00000-0 -27042-5 0 9999 2 41790 98.1821 67.9465 0006376 22.8924 337.3460 14.50927048176053 TY-1 1 41844U 16066D 20023.49045840 .00000548 00000-0 25086-4 0 9993 2 41844 97.4051 33.3067 0016171 133.3162 19.4424 15.24605393178026 Pegasus-1 1 41846U 16066F 20023.55889030 .00000171 00000-0 37247-4 0 9993 2 41846 098.6841 071.9288 0366181 307.6150 049.2315 14.37689771168005 CAS-2T 1 41847U 16066G 20023.57859827 .00000027 00000-0 15445-4 0 9993 2 41847 098.6772 072.4557 0364784 303.5880 053.0977 14.38035290168454 EO-88 1 42017U 17008BX 20023.28367397 .00001160 00000-0 47781-4 0 9991 2 42017 97.3791 92.8783 0007763 113.3416 246.8640 15.26078423163256 nSIGHT1 1 42726U 98067MF 20023.36859838 .00063429 00000-0 26029-3 0 9994 2 42726 51.6298 261.1108 0001554 253.4351 106.6482 15.85395994152329 CAS-4B 1 42759U 17034B 20023.47921756 -.00000037 00000-0 11279-4 0 9995 2 42759 43.0187 109.0222 0011471 197.6829 277.6693 15.09724907143905 CAS-4A 1 42761U 17034D 20023.35879317 .00000109 00000-0 20110-4 0 9993 2 42761 43.0189 109.0783 0011398 198.1577 243.7659 15.09804164143883 UCLSat 1 42765U 17036A 20023.39876707 .00000952 00000-0 43142-4 0 9999 2 42765 97.3230 81.4167 0011570 172.3278 187.8138 15.23188083143756 NIUSat 1 42766U 17036B 20023.40955748 .00000722 00000-0 35076-4 0 9997 2 42766 097.3226 079.2912 0015935 167.2874 192.8767 15.21457960143484 LituanicaSAT 2 1 42768U 17036D 20023.41743500 .00001553 00000-0 67781-4 0 9992 2 42768 097.3277 081.2119 0015372 164.8084 195.3618 15.23513995143605 Aalto 1 1 42775U 17036L 20023.40709976 .00000563 00000-0 27895-4 0 9990 2 42775 97.3209 79.6383 0014297 166.1460 194.0171 15.21625614143464 URSA MAIOR 1 42776U 17036M 20023.41284242 .00000610 00000-0 29853-4 0 9995 2 42776 097.3221 079.8689 0014132 165.9289 194.2344 15.21785316143475 Max Valier Sat 1 42778U 17036P 20023.43490414 .00000662 00000-0 31616-4 0 9996 2 42778 097.3268 080.9575 0012690 168.6396 191.5129 15.22361596143518 Pegasus 1 42784U 17036V 20023.39526737 .00000838 00000-0 38633-4 0 9997 2 42784 097.3236 081.1589 0012112 173.5519 186.5876 15.22902329143540 NUDATSat 1 42787U 17036Y 20023.63608081 .00001389 00000-0 60065-4 0 9996 2 42787 097.3279 082.4740 0010030 170.6215 189.5211 15.24066587143489 SUCHAI 1 1 42788U 17036Z 20023.40366474 .00001005 00000-0 45118-4 0 9996 2 42788 97.3242 81.6281 0011718 172.0119 188.1307 15.23392228143646 SKCUBE 1 42789U 17036AA 20023.23876650 .00000959 00000-0 43345-4 0 9997 2 42789 097.3237 081.3611 0011577 172.7060 187.4347 15.23260098143533 VZLUSAT 1 1 42790U 17036AB 20023.42705966 .00001301 00000-0 56430-4 0 9992 2 42790 097.3258 082.2660 0011197 170.1438 190.0021 15.24052023143606 VENTA 1 1 42791U 17036AC 20023.40893658 .00000889 00000-0 40376-4 0 9999 2 42791 097.3235 081.5754 0011254 172.3317 187.8094 15.23257470143552 Robusta 1B 1 42792U 17036AD 20023.40736559 .00000985 00000-0 44216-4 0 9990 2 42792 097.3238 081.7329 0011156 172.3336 187.8073 15.23441036143581 D-SAT 1 42794U 17036AF 20023.56744412 .00000092 00000-0 13155-4 0 9993 2 42794 097.5128 063.2978 0127547 131.4206 229.8057 14.91206224140951 TechnoSat 1 42829U 17042E 20023.52588255 .00000009 00000-0 62476-5 0 9995 2 42829 097.5401 271.9688 0015485 054.8283 305.4383 14.91047855137547 QIKCOM-1 1 42983U 98067NF 20023.40596796 .00003415 00000-0 47094-4 0 9990 2 42983 51.6400 321.0643 0003403 217.8832 142.1922 15.60346982127470 AO-91 1 43017U 17073E 20023.57989990 .00000230 00000-0 23297-4 0 9998 2 43017 097.7271 301.4223 0257822 165.2614 195.6301 14.78775963117603 EcAMSat 1 43019U 98067NG 20023.28768856 .00007312 00000-0 81845-4 0 9997 2 43019 51.6413 312.0902 0003842 199.8629 160.2217 15.63900819209908 PICSAT 1 43132U 18004X 20023.44308035 .00001042 00000-0 45921-4 0 9992 2 43132 97.4650 95.5891 0009117 197.6328 162.4594 15.24051680112813 AO-92 1 43137U 18004AC 20023.45713509 .00000791 00000-0 35792-4 0 9999 2 43137 097.4637 095.5051 0008646 199.0642 161.0272 15.23837747112815 TianYi 2 1 43155U 18008A 20023.51323459 .00000150 00000-0 12653-4 0 9991 2 43155 97.4648 96.2144 0016070 294.0621 191.0870 15.11422737110878 Zhou Enlai 1 43156U 18008B 20023.49957414 .00000176 00000-0 14367-4 0 9995 2 43156 97.4693 96.0650 0013176 292.9468 197.7152 15.10943090110830 TianYi 6 1 43158U 18008D 20023.46151821 .00000828 00000-0 54033-4 0 9990 2 43158 97.4664 95.2646 0012225 289.1008 136.5485 15.10505725110781 S-Net G 1 43186U 18014G 20023.57785231 .00000014 00000-0 62527-5 0 9993 2 43186 097.7030 293.7163 0011153 001.9123 358.2139 14.96744999107874 S-Net H 1 43187U 18014H 20023.57766846 .00000024 00000-0 71972-5 0 9990 2 43187 097.7028 293.6988 0011162 001.7912 358.3348 14.96745046107877 S-Net J 1 43188U 18014J 20023.51065873 .00000053 00000-0 97085-5 0 9992 2 43188 097.7031 293.6570 0011162 002.1413 357.9854 14.96744727107861 S-Net K 1 43189U 18014K 20023.44417594 .00000036 00000-0 81925-5 0 9993 2 43189 097.7028 293.5635 0011157 002.2242 357.9027 14.96744267106404 FMN 1 1 43192U 18015A 20023.49246135 .00001341 00000-0 56508-4 0 9992 2 43192 97.4228 153.9567 0014519 240.4937 184.0671 15.25023478109653 Shaonian Xing 1 43199U 18015H 20023.44652036 .00000985 00000-0 41861-4 0 9994 2 43199 97.4002 152.5517 0015300 252.8755 193.2517 15.25338400109705 1KUNS-PF 1 43466U 98067NP 20023.12268609 .00045250 00000-0 26694-3 0 9990 2 43466 51.6328 297.9581 0001412 140.8424 219.2679 15.77688633 97255 UBAKUSAT 1 43467U 98067NQ 20023.51416096 .00018815 00000-0 16649-3 0 9995 2 43467 051.6361 308.9143 0002072 150.4983 209.6131 15.68670629097151 Irazu 1 43468U 98067NR 20023.43296491 .00145869 19012-4 45271-3 0 9992 2 43468 51.6319 283.3606 0003876 162.4755 197.6386 15.91362316197468 EnduroSat One 1 43551U 98067NZ 20023.16635954 .00026962 00000-0 21802-3 0 9995 2 43551 51.6358 311.8344 0003151 245.2418 114.8252 15.70611855 87319 EQUISat 1 43552U 98067PA 20023.22359964 .00020497 00000-0 18901-3 0 9990 2 43552 051.6381 316.0417 0003917 244.8231 115.2359 15.67583177087226 UiTMSat 1 1 43589U 98067PD 20023.22539913 .00024370 00000-0 21450-3 0 9991 2 43589 051.6348 315.9322 0003089 254.7465 105.3190 15.68614138082963 Maya 1 1 43590U 98067PE 20023.09113287 .00021607 00000-0 19084-3 0 9990 2 43590 051.6356 316.5435 0003152 255.0638 105.0010 15.68609906082878 Bhutan 1 1 43591U 98067PF 20023.51899719 .00023333 00000-0 20483-3 0 9992 2 43591 051.6360 314.1972 0003318 256.9655 103.0971 15.68706960082947 SiriusSat 1 1 43595U 98067PG 20023.13846393 .00019010 00000-0 17799-3 0 9997 2 43595 051.6352 319.1176 0002257 194.1089 165.9844 15.67265520082024 SiriusSat 2 1 43596U 98067PH 20023.50979107 .00020015 00000-0 18784-3 0 9991 2 43596 051.6364 317.9083 0002647 197.3910 162.6996 15.67167454082076 Tanusha-3 1 43597U 98067PJ 20023.16000949 .00033105 00000-0 25950-3 0 9990 2 43597 51.6335 313.9466 0001761 200.7710 159.3216 15.71245417 82090 SurfSat 1 43614U 18070B 20023.21936479 .00002091 00000-0 55100-4 0 9999 2 43614 093.0348 094.1048 0015643 172.6812 187.4674 15.38493586075998 CP-7 DAVE 1 43615U 18070C 20023.43388165 .00002038 00000-0 53905-4 0 9999 2 43615 093.0351 094.1908 0015836 171.4162 188.7366 15.38383083076024 ELFIN-B 1 43616U 18070D 20023.45690125 .00003018 00000-0 77085-4 0 9998 2 43616 93.0315 94.1112 0016380 174.2150 185.9297 15.39408309 76050 ELFIN-A 1 43617U 18070E 20023.43985772 .00003228 00000-0 82118-4 0 9998 2 43617 093.0371 094.4941 0015828 170.6438 189.5115 15.39538038076053 STARS-Me Mother 1 43640U 98067PQ 20023.23071704 .00011192 00000-0 13028-3 0 9999 2 43640 51.6371 328.0556 0004478 187.4668 172.6260 15.62236857 73845 CubeBel 1 1 43666U 18083E 20023.51612220 .00000602 00000-0 32944-4 0 9995 2 43666 97.5037 51.3302 0016024 143.1760 16.5391 15.17965396 68479 Changshagaoxin 1 43669U 18083H 20023.52357090 .00000598 00000-0 33549-4 0 9996 2 43669 97.4903 49.9750 0012041 135.4012 224.8192 15.17072851 68403 Ten-Koh 1 43677U 18084G 20023.58665300 .00000095 00000-0 15619-4 0 9998 2 43677 097.8684 141.1627 0014617 280.6497 079.3074 14.90239007067219 PO-101 1 43678U 18084H 20023.43533586 .00000404 00000-0 45978-4 0 9998 2 43678 97.8681 142.0160 0008653 305.7482 54.2914 14.91603954 67251 IRVINE 01 1 43693U 18088D 20023.45523836 .00002141 00000-0 90907-4 0 9990 2 43693 085.0368 173.5925 0019997 107.1469 253.1965 15.22237078066631 QO-100 1 43700U 18090A 20023.55133414 .00000136 00000-0 00000-0 0 9995 2 43700 000.0148 080.2442 0001890 262.4227 003.9170 01.00272344004245 Reaktor Hello World 1 43743U 18096AA 20023.47367913 .00000704 00000-0 29256-4 0 9991 2 43743 97.4386 98.0039 0016278 285.2982 201.8119 15.27060395 64111 MinXSS-2 1 43758U 18099A 20023.48155976 .00000686 00000-0 67002-4 0 9995 2 43758 097.7236 097.6973 0014457 321.1915 038.8266 14.95558535062132 AO-95 1 43770U 18099N 20023.19144378 .00000043 00000-0 92467-5 0 9992 2 43770 097.7233 097.0090 0013748 329.9604 030.0827 14.94893351062066 RANGE-B 1 43772U 18099Q 20023.42946495 .00000394 00000-0 41172-4 0 9995 2 43772 097.7297 097.5948 0013020 316.0017 044.0166 14.95052085062099 RANGE-A 1 43773U 18099R 20023.44891865 -.00000230 00000-0 -15803-4 0 9991 2 43773 097.7178 097.0105 0012499 315.9641 044.0583 14.94897233062092 MOVE-II 1 43780U 18099Y 20023.44585089 -.00000068 00000-0 -93210-6 0 9996 2 43780 97.7230 97.3835 0012654 326.9433 33.0995 14.95258104 62090 SNUSat 2 1 43782U 18099AA 20023.44693598 -.00000203 00000-0 -13197-4 0 9998 2 43782 097.7230 097.4198 0011700 315.9746 044.0542 14.95169246062101 SnugLite 1 43784U 18099AC 20023.42444918 .00000425 00000-0 43786-4 0 9999 2 43784 097.7197 097.2656 0014077 324.0870 035.9404 14.95261508062112 ITASat 1 1 43786U 18099AE 20023.42293425 .00000457 00000-0 46765-4 0 9991 2 43786 097.7250 097.5513 0014152 323.0086 037.0158 14.95248716062116 EAGLET 1 1 43790U 18099AJ 20023.45201645 -.00000166 00000-0 -97587-5 0 9990 2 43790 097.7237 097.7697 0012733 327.9843 032.0603 14.95623458061825 ESEO 1 43792U 18099AL 20023.45389015 -.00000281 00000-0 -20090-4 0 9992 2 43792 97.7214 97.6618 0012440 324.9366 35.1035 14.95561018 61888 CSIM 1 43793U 18099AM 20023.46999317 .00000543 00000-0 53649-4 0 9991 2 43793 097.7193 097.5914 0011854 321.1196 038.9171 14.95899583061862 Astrocast 0.1 1 43798U 18099AS 20023.45837510 -.00000100 00000-0 -37515-5 0 9997 2 43798 97.7226 97.8482 0011291 306.4072 53.6107 14.95805822 62127 JO-97 1 43803U 18099AX 20023.52066545 -.00000063 00000-0 -48489-6 0 9995 2 43803 097.7206 097.5039 0014231 322.6118 037.4111 14.95403529062128 Suomi 100 1 43804U 18099AY 20023.45370733 -.00000108 00000-0 -45556-5 0 9996 2 43804 097.7204 097.4316 0014303 322.9938 037.0295 14.95396950062125 Al Farabi 2 1 43805U 18099AZ 20023.57228152 -.00000040 00000-0 15917-5 0 9999 2 43805 097.7212 097.5963 0014311 323.0025 037.0208 14.95493819062140 PWSat 2 1 43814U 18099BJ 20023.46600131 .00013704 00000-0 94082-3 0 9996 2 43814 097.7812 102.0556 0004849 269.0960 090.9711 15.06092776061706 CHOMPTT 1 43855U 18104G 20023.62466885 .00000394 00000-0 15079-4 0 9993 2 43855 085.0387 271.6601 0015567 224.5384 135.4622 15.22716025061330 ISAT 1 43879U 18111D 20023.57038033 .00000449 00000-0 44947-4 0 9998 2 43879 097.7111 293.2812 0013790 019.0840 341.0895 14.96136570058665 UWE-4 1 43880U 18111E 20023.30633471 .00000351 00000-0 36047-4 0 9992 2 43880 097.7123 293.2162 0013017 021.2258 338.9500 14.96374780058630 Sparrow 1 43881U 18111F 20023.56151607 .00000773 00000-0 73183-4 0 9997 2 43881 097.7125 293.5172 0012966 019.1180 341.0525 14.96425490058670 Lume 1 1 43908U 18111AJ 20023.43623417 .00000845 00000-0 36809-4 0 9990 2 43908 097.2783 287.5765 0020021 302.0348 057.8945 15.24739701059772 FO-98 1 43933U 19003B 20023.59735481 .00000483 00000-0 24073-4 0 9999 2 43933 097.2534 078.7550 0019183 039.8319 120.7793 15.21905105056347 FO-99 1 43937U 19003F 20023.57168372 .00000768 00000-0 34286-4 0 9993 2 43937 97.2493 79.5746 0024882 24.3091 81.5315 15.24032085 56412 Delphini 1 1 44030U 98067PW 20023.55991709 .00013760 00000-0 16433-3 0 9990 2 44030 051.6371 332.5152 0003132 240.9794 119.0886 15.61339432055685 MYSat 1 1 44045U 18092F 20023.41655140 .00001147 00000-0 43272-4 0 9995 2 44045 051.6467 030.9650 0012274 151.8550 208.3099 15.35905820052840 AstroCast 0.2 1 44083U 19018F 20023.48564648 .00000895 00000-0 42956-4 0 9992 2 44083 97.4421 86.4039 0012286 329.4851 30.5669 15.21398355 45188 AISTechSat 3 1 44103U 19018AB 20023.45628714 .00000424 00000-0 21085-4 0 9995 2 44103 097.4304 086.4567 0012921 347.7556 139.1789 15.22930475045217 AISat 1 1 44104U 19018AC 20023.41424835 .00000578 00000-0 21145-4 0 9997 2 44104 097.4831 092.0495 0058880 012.9274 347.3460 15.30804631045467 Raavana-1 1 44329U 98067QE 20023.44897880 .00008613 00000-0 13254-3 0 9993 2 44329 051.6410 344.5807 0006558 169.8451 190.2674 15.55081231034265 Uguisu 1 44330U 98067QF 20023.26236588 .00008439 00000-0 13027-3 0 9991 2 44330 51.6409 345.5828 0006555 167.7037 192.4115 15.55023213 34218 NepaliSat-1 1 44331U 98067QG 20023.25136405 .00008778 00000-0 13479-3 0 9995 2 44331 051.6408 345.5113 0006562 170.3220 189.7899 15.55109721034225 Prox-1 1 44339U 19036A 20023.45193472 .00000545 00000-0 79990-4 0 9996 2 44339 024.0048 310.4325 0010452 357.6139 002.4303 14.52810522030877 OBJECT H 1 44346U 19036H 20023.63410842 .00912644 25864-3 43137-2 0 9999 2 44346 028.5169 238.3931 0127662 232.5850 126.3988 15.70590461032068 OBJECT J 1 44347U 19036J 20022.95758856 .00025983 00000-0 37012-3 0 9993 2 44347 028.5307 253.9866 0338552 201.3625 157.2527 15.09425735031850 OBJECT K 1 44348U 19036K 20023.32910261 .00006645 00000-0 98265-4 0 9998 2 44348 028.5187 259.7536 0377448 191.9980 167.1412 14.99924551031828 Armadillo 1 44352U 19036P 20023.35348065 .00009086 00000-0 13666-3 0 9996 2 44352 028.5329 258.2341 0369494 194.1135 164.8898 15.01517731031798 NO-104 1 44354U 19036R 20023.35264408 .00008143 00000-0 11993-3 0 9990 2 44354 028.5310 258.1561 0374750 193.8266 165.1812 15.00794667031834 NO-103 1 44355U 19036S 20022.97002571 .00013378 00000-0 19541-3 0 9992 2 44355 28.5313 257.9857 0362827 194.1383 164.8814 15.03774701 31792 Oculus-ASR 1 44356U 19036T 20023.65076639 .00026531 00000-0 33807-3 0 9991 2 44356 028.5270 243.8061 0329837 217.2287 140.5060 15.13500630032008 CP9 1 44360U 19036X 20022.94498282 .00018471 -58708-5 21743-3 0 9993 2 44360 028.5167 252.5048 0355716 203.4942 154.9025 15.08149144031732 Move-IIb 1 44398U 19038N 20023.51008290 .00000966 00000-0 59740-4 0 9991 2 44398 097.5176 346.8092 0023771 270.6988 089.1518 15.11998150030529 SONATE 1 44400U 19038Q 20023.51758891 .00000416 00000-0 28044-4 0 9997 2 44400 097.5201 346.8347 0023671 268.6149 091.2370 15.11809645030520 BeeSat 9 1 44412U 19038AC 20023.42794081 .00000696 00000-0 44104-4 0 9996 2 44412 097.5191 346.7877 0021262 275.1824 084.6980 15.12051926030205 JAISAT-1 1 44419U 19038F 20023.56095695 .00000658 00000-0 41358-4 0 9999 2 44419 097.5193 347.0729 0020139 274.2359 085.6570 15.12534704030542 LightSail-2 1 44420U 19036AC 20023.16497393 .00004309 00000-0 94963-3 0 9992 2 44420 024.0098 311.1458 0010852 316.1039 043.8628 14.54193382028990 Taurus 1 1 44530U 19059C 20023.46026113 -.00000311 00000-0 -75563-4 0 9997 2 44530 098.5783 103.1314 0015563 227.0346 132.9547 14.45257119019252 MO-106 1 44830U 19084G 20023.56572485 .00024372 00000-0 22212-3 0 9990 2 44830 096.9976 252.4506 0040603 073.7744 286.7979 15.66785310007531 TRSI-Sat 1 44831U 19084H 20023.37332072 .00028311 00000-0 25769-3 0 9993 2 44831 096.9983 252.2689 0040644 073.6254 286.9470 15.66787265007517 MO-105 1 44832U 19084J 20023.36882622 .00030528 00000-0 27551-3 0 9998 2 44832 96.9980 252.2705 0040065 73.8991 286.6676 15.67014162 7505 Duchifat 3 1 44854U 19089C 20023.61733207 .00000119 00000-0 16142-4 0 9997 2 44854 36.9673 240.1413 0009758 318.6559 41.3473 14.98953335 6404 OPS-SAT 1 44878U 19092F 20023.23784128 -.00000066 00000-0 00000-0 0 9997 2 44878 097.4639 209.0398 0015724 140.1088 220.1342 15.15214135005392 FloripaSat 1 1 44885U 19093G 20023.55340406 .00000156 00000-0 26434-4 0 9990 2 44885 097.9733 100.5174 0015269 157.2262 202.9634 14.81956327005091 /EX